Total_Precipitation_Accumulation
0.84 0.77 0.65 0.67 0.63 0.66 0.75 0.80 0.83 0.86 0.94 0.90 0.87 0.90 0.93 0.88 0.80 0.79 0.97 1.23 1.70 2.07 2.03 1.87 1.68 1.68 1.67 1.51 1.53 1.69 1.85 1.95 1.92 1.92 2.01 2.10 2.00 1.85 1.77 1.69 1.68 1.61 1.51
0.76 0.78 0.74 0.75 0.76 0.73 0.74 0.75 0.74 0.88 0.95 0.98 0.96 0.94 0.92 0.83 0.81 0.90 1.06 1.13 1.19 1.55 2.07 2.17 2.11 1.99 1.89 1.67 1.59 1.70 1.79 1.82 1.78 1.85 1.90 1.91 1.81 1.62 1.50 1.62 1.81 1.60 1.39
0.71 0.76 0.79 0.81 0.82 0.82 0.82 0.85 0.86 0.96 0.96 1.04 1.07 0.95 0.89 0.86 0.82 0.88 0.97 1.07 0.89 0.92 1.40 2.00 2.27 2.14 2.10 1.96 1.76 1.74 1.78 1.85 1.74 1.86 1.85 1.84 1.67 1.55 1.43 1.60 1.77 1.66 1.44
0.74 0.82 0.84 0.89 0.94 0.86 0.84 0.93 1.00 1.08 1.08 1.15 1.18 1.02 0.85 0.94 0.88 0.88 1.01 1.05 1.01 0.94 1.10 1.33 1.60 1.79 2.10 2.27 2.10 1.99 1.88 1.78 1.63 1.73 1.78 1.76 1.61 1.52 1.42 1.57 1.61 1.61 1.58
0.92 0.99 1.04 1.06 1.08 1.09 1.03 0.94 0.98 1.10 1.22 1.26 1.14 1.05 0.94 0.95 0.97 0.94 1.12 1.14 1.12 1.12 1.18 1.10 1.12 1.27 1.59 2.06 2.24 2.20 1.97 1.71 1.54 1.58 1.61 1.49 1.53 1.50 1.35 1.42 1.48 1.52 1.56
1.19 1.30 1.28 1.22 1.30 1.40 1.44 1.24 1.30 1.26 1.22 1.33 1.18 1.11 1.09 1.03 1.03 1.09 1.13 1.25 1.39 1.25 1.26 1.19 1.09 0.90 1.10 1.48 1.84 2.14 2.17 2.00 1.73 1.65 1.69 1.44 1.38 1.43 1.34 1.27 1.34 1.42 1.44
1.52 1.70 1.67 1.64 1.66 1.66 1.63 1.58 1.73 1.67 1.42 1.34 1.55 1.53 1.37 1.20 1.15 1.12 1.17 1.39 1.53 1.47 1.50 1.42 1.30 1.11 0.98 0.98 1.19 1.78 2.13 2.28 2.17 1.92 1.92 1.75 1.43 1.32 1.31 1.28 1.30 1.38 1.44
1.75 1.79 2.00 2.11 2.08 2.21 2.18 2.01 2.16 2.19 1.82 1.57 1.85 2.18 1.90 1.67 1.26 1.15 1.25 1.32 1.44 1.55 1.60 1.47 1.32 1.21 1.15 1.08 0.92 1.25 1.58 2.07 2.32 2.12 2.17 2.17 1.68 1.38 1.25 1.25 1.29 1.34 1.46
1.91 1.92 2.04 2.21 2.23 2.31 2.43 2.51 2.46 2.57 2.38 1.97 1.83 2.14 2.09 1.95 1.72 1.32 1.26 1.37 1.54 1.62 1.65 1.64 1.47 1.23 1.20 1.23 1.03 0.96 1.12 1.34 1.83 2.11 2.23 2.41 2.01 1.55 1.27 1.22 1.23 1.22 1.35
2.09 2.17 2.19 2.30 2.33 2.35 2.46 2.56 2.53 2.68 2.76 2.37 2.06 1.85 1.69 1.72 1.84 1.62 1.40 1.36 1.54 1.59 1.60 1.62 1.66 1.50 1.32 1.33 1.20 0.98 0.98 1.05 1.34 1.86 2.14 2.38 2.28 1.81 1.42 1.33 1.35 1.28 1.33
2.20 2.24 2.31 2.47 2.46 2.45 2.43 2.64 2.70 2.80 2.72 2.64 2.49 2.32 2.16 1.92 1.57 1.67 1.73 1.58 1.47 1.38 1.46 1.60 1.76 1.71 1.54 1.47 1.54 1.21 0.97 0.97 1.06 1.54 1.93 2.39 2.51 2.18 1.89 1.74 1.60 1.50 1.35
2.24 2.13 2.05 2.19 2.26 2.30 2.29 2.48 2.66 2.80 2.79 2.80 2.72 2.43 2.39 2.26 1.90 1.84 1.72 1.62 1.64 1.44 1.39 1.49 1.55 1.55 1.57 1.53 1.44 1.40 1.11 0.94 0.95 1.22 1.61 1.99 2.45 2.41 2.30 2.22 2.00 1.89 1.71
2.07 2.11 1.99 1.98 2.01 1.96 2.01 2.13 2.20 2.28 2.43 2.59 2.51 2.30 2.26 2.09 2.06 2.08 1.99 1.77 1.61 1.39 1.41 1.41 1.39 1.40 1.39 1.43 1.48 1.53 1.17 0.95 0.93 1.04 1.33 1.58 1.95 2.26 2.43 2.37 2.26 2.25 2.16
1.76 1.85 1.84 1.78 1.82 1.86 1.87 1.97 1.99 1.99 2.02 2.10 2.09 2.19 2.25 2.11 2.03 1.97 2.02 2.18 1.95 1.71 1.56 1.41 1.39 1.43 1.38 1.36 1.51 1.55 1.22 1.07 0.95 0.91 1.03 1.27 1.56 1.93 2.17 2.22 2.27 2.38 2.36
1.32 1.39 1.48 1.55 1.64 1.69 1.75 1.90 1.99 1.98 1.94 1.91 2.00 2.07 2.03 2.02 2.00 1.90 1.88 2.05 2.15 2.00 1.85 1.66 1.52 1.45 1.47 1.39 1.47 1.31 1.26 1.19 1.04 0.98 1.00 0.97 1.12 1.43 1.63 1.82 1.99 2.01 2.12
1.01 1.06 1.16 1.32 1.55 1.67 1.70 1.78 1.84 1.93 1.96 1.92 2.01 2.11 2.13 2.13 2.14 2.08 1.96 1.95 1.91 1.96 1.87 1.65 1.46 1.38 1.51 1.38 1.48 1.30 1.24 1.39 1.20 1.12 1.04 0.92 0.90 0.97 1.09 1.28 1.48 1.61 1.65
0.86 0.97 1.01 1.16 1.31 1.49 1.67 1.81 1.83 1.83 1.87 1.86 1.80 1.90 2.03 2.12 2.23 2.25 2.24 2.13 1.99 1.95 1.86 1.70 1.50 1.37 1.52 1.57 1.50 1.43 1.31 1.24 1.24 1.23 1.10 1.05 0.96 0.84 0.91 1.01 1.18 1.33 1.41
0.69 0.77 0.90 1.10 1.22 1.30 1.34 1.43 1.51 1.55 1.60 1.66 1.65 1.61 1.69 1.79 1.95 2.10 2.20 2.14 2.13 2.03 1.93 1.91 1.73 1.48 1.40 1.49 1.54 1.62 1.53 1.30 1.27 1.36 1.29 1.18 1.08 0.92 0.84 0.87 0.98 1.04 1.08
0.68 0.71 0.84 0.99 1.05 1.10 1.14 1.16 1.26 1.35 1.37 1.36 1.42 1.39 1.40 1.49 1.63 1.78 1.87 1.96 2.07 2.10 2.11 2.01 1.92 1.74 1.50 1.52 1.60 1.63 1.66 1.71 1.47 1.38 1.38 1.32 1.23 1.12 1.04 0.96 0.93 0.94 0.91
0.72 0.75 0.89 0.97 0.98 0.94 1.03 1.07 1.12 1.16 1.13 1.08 1.11 1.12 1.17 1.22 1.31 1.44 1.58 1.80 1.99 2.10 2.17 2.15 2.05 1.83 1.67 1.64 1.63 1.65 1.74 1.81 1.78 1.54 1.43 1.35 1.39 1.34 1.20 1.09 1.02 0.99 0.98
0.74 0.76 0.81 0.91 0.94 0.92 0.96 1.03 1.02 0.97 0.96 0.96 0.91 0.81 0.83 0.92 0.94 1.03 1.07 1.36 1.62 1.85 1.97 2.04 2.02 1.87 1.67 1.57 1.45 1.48 1.62 1.80 1.87 1.82 1.73 1.45 1.39 1.35 1.29 1.24 1.15 1.07 1.02
0.62 0.65 0.69 0.84 0.94 0.84 0.96 0.96 0.88 0.81 0.79 0.84 0.80 0.73 0.71 0.75 0.67 0.64 0.68 0.91 1.20 1.40 1.59 1.77 1.83 1.71 1.57 1.50 1.55 1.54 1.54 1.61 1.64 1.57 1.57 1.58 1.50 1.42 1.35 1.28 1.28 1.25 1.17
0.54 0.59 0.62 0.76 0.86 0.93 0.88 0.73 0.77 0.76 0.77 0.81 0.83 0.85 0.77 0.72 0.80 0.71 0.65 0.72 0.80 0.92 1.08 1.35 1.58 1.57 1.66 1.59 1.50 1.45 1.46 1.50 1.50 1.55 1.56 1.57 1.48 1.40 1.29 1.26 1.38 1.30 1.30
0.51 0.56 0.59 0.62 0.69 0.83 0.77 0.62 0.67 0.66 0.77 0.85 0.89 0.97 0.98 0.92 0.89 0.96 0.90 0.91 0.88 0.80 0.87 0.80 1.01 1.39 1.53 1.59 1.55 1.58 1.67 1.60 1.47 1.51 1.53 1.55 1.48 1.37 1.24 1.16 1.25 1.16 1.10
0.55 0.57 0.59 0.61 0.66 0.70 0.68 0.61 0.64 0.70 0.83 0.85 0.81 0.93 0.97 0.92 0.97 1.02 1.13 1.19 1.12 0.96 1.07 1.08 0.99 1.10 1.25 1.30 1.42 1.52 1.58 1.51 1.47 1.40 1.29 1.26 1.23 1.26 1.31 1.22 1.18 1.20 1.11
0.55 0.56 0.54 0.53 0.56 0.57 0.63 0.54 0.66 0.77 0.82 0.84 0.85 0.91 1.05 0.98 0.95 0.91 0.99 1.14 1.14 1.01 0.88 0.91 0.88 0.78 0.72 0.83 1.02 1.20 1.48 1.61 1.56 1.46 1.26 1.20 1.22 1.20 1.25 1.17 1.07 1.10 1.08